Regional Weather Roundup
Issued by NWS State College, PA

Home | Current Version | Previous Version | Text Only | Print | Product List | Glossary Off
Versions: 1 2 3 4 5 6 7 8 9 10 11 12 13 14 15 16 17 18 19 20 21 22 23 24 25 26 27 28 29 30 31 32 33 34 35 36 37 38 39 40 41 42 43 44 45 46 47 48 49 50

000
ASUS41 KCTP 061503
RWRCTP

REGIONAL WEATHER ROUNDUP
NATIONAL WEATHER SERVICE STATE COLLEGE PA
1100 AM EDT FRI MAY 06 2016

Note: "fair" indicates few or no clouds below 12,000 feet with no
significant weather and/or obstructions to visibility.

* = STATION THAT DOES NOT REPORT PRECIPITATION /E.G. RAIN...SNOW...ETC/
    THUNDER OR FOG.

PAZ002>004-007>009-013>016-020>023-029>032-061600-
WESTERN PENNSYLVANIA

CITY           SKY/WX    TMP DP  RH WIND       PRES   REMARKS
ERIE           SUNNY     54  41  61 N7        29.89R
MEADVILLE      MOSUNNY   58  42  55 N9        29.86R
FRANKLIN*      MOSUNNY   61  39  44 N9G18     29.85F
NEW CASTLE     FAIR      60  43  53 N10G18    29.86S
BEAVER COUNTY  SUNNY     59  43  55 N9G16     29.85S
BUTLER*        MOSUNNY   61  37  41 N9G20     29.85S
PITTSBURGH INT MOSUNNY   63  39  41 NW17G26   29.82F
PITTSBURGH     MOSUNNY   62  40  44 VRB7      29.80F
INDIANA*       MOSUNNY   59  41  51 N13G21    29.82F
LATROBE        PTSUNNY   57  41  54 N13       29.80F
WASHINGTON CO* SUNNY     61  41  48 N13G18    29.83F
$$

PAZ004>006-010>012-017>019-024>028-033>037-041-042-045-046-049>053-061600-
CENTRAL PENNSYLVANIA

CITY           SKY/WX    TMP DP  RH WIND       PRES   REMARKS
BRADFORD       CLOUDY    55  33  43 NE17G28   29.82S
DUBOIS         MOSUNNY   57  36  45 NE17G23   29.79S
CLEARFIELD     CLOUDY    56  35  45 N20G30    29.77S
JOHNSTOWN      CLOUDY    52  36  54 N10       29.75F
ALTOONA        CLOUDY    54  42  64 N15       29.75S
STATE COLLEGE  CLOUDY    55  41  58 NW14      29.74S
WILLIAMSPORT   LGT RAIN  57  41  55 N14G21    29.72F
SELINSGROVE    CLOUDY    55  44  66 N15G23    29.71S
FT INDIANTOWN  LGT RAIN  52  51  95 NE6       29.69R FOG
CAPITAL CITY   RAIN      55  47  74 N5        29.70R
HARRISBURG     RAIN      55  48  77 NE6       29.69R
YORK           RAIN      53  50  89 E6        29.69R FOG
$$

PAZ038>040-043-044-047-048-054-055-060>062-067>071-061600-
EASTERN PENNSYLVANIA

CITY           SKY/WX    TMP DP  RH WIND       PRES   REMARKS
SCRANTON       RAIN      49  46  90 N9        29.71S FOG
MOUNT POCONO   LGT RAIN  45  43  93 N15G22    29.67F
ALLENTOWN      LGT RAIN  52  48  86 E10       29.71R FOG
QUAKERTOWN*    CLOUDY    48  48 100 E8        29.70S
READING        RAIN      51  49  92 VRB6      29.69R
LANCASTER      RAIN      51  49  92 N7        29.69S FOG
COATESVILLE    HVY RAIN  50  50 100 MISG      29.69S
POTTSTOWN      RAIN      49  49 100 NE6       29.70S FOG
BLUE BELL      CLOUDY    46  46 100 NE8       29.68S
DOYLESTOWN     CLOUDY    48  47  96 NE10G20   29.69S
WILLOW GROVE   NOT AVBL
NORTH PHILA    LGT RAIN  52  48  86 NE13      29.69F
PHILADELPHIA   LGT RAIN  52  47  83 NE15      29.67F
$$




USA.gov is the U.S. government's official web portal to all federal, state and local government web resources and services.